sat.trackr.live / text

‹ back to catalog

KUIPER-00208

NORAD 67775 · 2026-030M

PAYLOAD ACTIVE UNKNOWN

§ Identity

Operator
Country
US
Launch date
2026-02-12
Launch site
FRGUI
Launch vehicle
Mass (kg)
RCS (m²)

External: N2YO · Heavens-Above · Gunter

§ Orbital elements

Epoch: 2026-05-24T18:32:17.224512Z

Period
97.53 min
Inclination
51.8972°
Eccentricity
0.0006998
Mean motion
14.76531934 rev/d
Perigee alt
635.4 km
Apogee alt
645.2 km
Semi-major
7,018.4 km
B*
3.2193e-4
RAAN
232.9168°
Arg perigee
324.3474°
Mean anomaly
35.7018°
Rev number
1,649

§ Raw data

KUIPER-002081 67775U 26030M   26144.77242158  .00002050  00000+0  32193-3 0  99932 67775  51.8972 232.9168 0006998 324.3474  35.7018 14.76531934 16493

JSON: /api/v1/satellites/67775 · /tle

For live sub-satellite position, see the globe view (requires WebGL).

§ Visibility from observer

Set your observer location to see the next 7 days of passes ≥ 10°. The values pass through the URL so the page stays shareable.

No JS? Fill the form by hand. The geolocation button needs JavaScript.